N314RS KATY-KOPF

Flight info

Callsign N314RS
Flight time 3h 0m
Altitude 41000
Route UFFDA DSM Q19 STL J45 PLESS/N0493F450 J45 LAJUG HONID CUURT1
Aircraft C750/M-SBDE3FGHRWXY/S

Departure

Time 2026-05-06 23:44
Airport Watertown Regional Airport (KATY)

Arrival

Time 2026-05-07 02:44
Airport Miami-Opa Locka Executive Airport (KOPF)
Time Latitude Longitude Altitude Speed Heading
2026-05-06 23:13 44.92138 -97.16249 1750 ft 0 kts 217°
2026-05-06 23:38 44.92137 -97.16250 1750 ft 1 kts 217°
2026-05-06 23:38 44.92128 -97.16259 1748 ft 2 kts 217°
2026-05-06 23:39 44.92110 -97.16279 1750 ft 4 kts 217°
2026-05-06 23:39 44.92081 -97.16278 1748 ft 5 kts 139°
2026-05-06 23:39 44.92052 -97.16222 1750 ft 9 kts 124°
2026-05-06 23:39 44.92012 -97.16139 1747 ft 12 kts 124°
2026-05-06 23:40 44.91960 -97.16030 1749 ft 15 kts 124°
2026-05-06 23:40 44.91894 -97.15895 1748 ft 17 kts 124°
2026-05-06 23:40 44.91828 -97.15760 1747 ft 16 kts 126°
2026-05-06 23:40 44.91765 -97.15633 1746 ft 15 kts 124°
2026-05-06 23:41 44.91707 -97.15515 1746 ft 14 kts 124°
2026-05-06 23:41 44.91654 -97.15406 1745 ft 13 kts 124°
2026-05-06 23:41 44.91601 -97.15299 1744 ft 14 kts 124°
2026-05-06 23:41 44.91542 -97.15178 1744 ft 15 kts 124°
2026-05-06 23:42 44.91486 -97.15061 1744 ft 14 kts 123°
2026-05-06 23:42 44.91427 -97.14941 1743 ft 16 kts 124°
2026-05-06 23:42 44.91365 -97.14814 1742 ft 15 kts 125°
2026-05-06 23:42 44.91305 -97.14692 1740 ft 15 kts 126°
2026-05-06 23:43 44.91221 -97.14685 1738 ft 13 kts 215°
2026-05-06 23:43 44.91164 -97.14764 1738 ft 9 kts 281°
2026-05-06 23:43 44.91213 -97.14874 1739 ft 36 kts 304°
2026-05-06 23:43 44.91551 -97.15563 1745 ft 126 kts 304°
2026-05-06 23:44 44.92100 -97.16688 2066 ft 142 kts 304°
2026-05-06 23:44 44.92652 -97.17864 2753 ft 146 kts 302°
2026-05-06 23:44 44.93214 -97.19101 3216 ft 162 kts 301°
2026-05-06 23:44 44.93879 -97.20566 3468 ft 193 kts 296°
2026-05-06 23:45 44.93971 -97.22584 3630 ft 230 kts 255°
2026-05-06 23:45 44.92927 -97.24441 4130 ft 259 kts 215°
2026-05-06 23:45 44.91177 -97.24994 5119 ft 266 kts 179°
2026-05-06 23:45 44.89451 -97.23990 5951 ft 278 kts 143°
2026-05-06 23:46 44.88323 -97.21781 6842 ft 281 kts 117°
2026-05-06 23:46 44.87535 -97.19244 7775 ft 285 kts 113°
2026-05-06 23:46 44.86771 -97.16626 8560 ft 293 kts 113°
2026-05-06 23:46 44.86013 -97.13970 9255 ft 299 kts 113°
2026-05-06 23:47 44.85241 -97.11219 9981 ft 305 kts 113°
2026-05-06 23:47 44.84449 -97.08381 10298 ft 322 kts 113°
2026-05-06 23:47 44.83601 -97.05356 10638 ft 335 kts 112°
2026-05-06 23:47 44.82743 -97.02303 11361 ft 336 kts 112°
2026-05-06 23:48 44.81865 -96.99218 11919 ft 342 kts 112°
2026-05-06 23:48 44.80967 -96.96094 12544 ft 346 kts 112°
2026-05-06 23:48 44.80052 -96.92937 13139 ft 350 kts 112°
2026-05-06 23:48 44.79121 -96.89746 13747 ft 355 kts 112°
2026-05-06 23:49 44.78182 -96.86557 14281 ft 360 kts 112°
2026-05-06 23:49 44.77220 -96.83303 14996 ft 362 kts 112°
2026-05-06 23:49 44.76251 -96.80012 15667 ft 366 kts 112°
2026-05-06 23:49 44.75278 -96.76686 16348 ft 370 kts 112°
2026-05-06 23:50 44.74298 -96.73317 17051 ft 374 kts 112°
2026-05-06 23:50 44.72318 -96.66453 18448 ft 383 kts 112°
2026-05-06 23:50 44.71199 -96.63039 19048 ft 386 kts 119°
2026-05-06 23:51 44.69831 -96.59777 19716 ft 388 kts 123°
2026-05-06 23:51 44.68405 -96.56531 20348 ft 393 kts 122°
2026-05-06 23:51 44.67082 -96.53147 20989 ft 397 kts 119°
2026-05-06 23:51 44.65820 -96.49733 21620 ft 401 kts 119°
2026-05-06 23:52 44.64470 -96.46294 22263 ft 404 kts 121°
2026-05-06 23:52 44.63063 -96.42855 22897 ft 408 kts 121°
2026-05-06 23:52 44.61668 -96.39360 23534 ft 412 kts 120°
2026-05-06 23:52 44.60288 -96.35814 24076 ft 416 kts 120°
2026-05-06 23:53 44.58882 -96.32247 24625 ft 419 kts 120°
2026-05-06 23:53 44.57449 -96.28673 25182 ft 422 kts 121°
2026-05-06 23:53 44.56008 -96.25070 25749 ft 426 kts 120°
2026-05-06 23:53 44.54563 -96.21426 26310 ft 429 kts 120°
2026-05-06 23:54 44.53105 -96.17759 26872 ft 432 kts 120°
2026-05-06 23:54 44.51648 -96.14120 27423 ft 436 kts 120°
2026-05-06 23:54 44.49939 -96.10602 27878 ft 439 kts 132°
2026-05-06 23:54 44.47749 -96.07643 28492 ft 437 kts 144°
2026-05-06 23:55 44.45216 -96.05293 29045 ft 437 kts 152°
2026-05-06 23:55 44.42593 -96.03103 29610 ft 441 kts 152°
2026-05-06 23:55 44.39952 -96.00878 30130 ft 445 kts 152°
2026-05-06 23:55 44.37290 -95.98619 30563 ft 449 kts 152°
2026-05-06 23:56 44.34608 -95.96356 31007 ft 453 kts 152°
2026-05-06 23:56 44.31893 -95.94081 31433 ft 456 kts 152°
2026-05-06 23:56 44.29199 -95.91820 31858 ft 460 kts 152°
2026-05-06 23:56 44.26450 -95.89509 32269 ft 464 kts 153°
2026-05-06 23:57 44.23677 -95.87182 32696 ft 467 kts 153°
2026-05-06 23:57 44.20876 -95.84838 33108 ft 471 kts 153°
2026-05-06 23:57 44.18057 -95.82481 33512 ft 474 kts 153°
2026-05-06 23:57 44.15219 -95.80109 33938 ft 478 kts 153°
2026-05-06 23:58 44.12356 -95.77719 34287 ft 481 kts 153°
2026-05-06 23:58 44.09482 -95.75322 34667 ft 483 kts 153°
2026-05-06 23:58 44.06605 -95.72925 35180 ft 481 kts 153°
2026-05-06 23:58 44.03727 -95.70531 35620 ft 482 kts 153°
2026-05-06 23:59 44.00890 -95.68176 36046 ft 482 kts 153°
2026-05-06 23:59 43.98007 -95.65783 36506 ft 483 kts 153°
2026-05-06 23:59 43.95123 -95.63391 36964 ft 483 kts 153°
2026-05-06 23:59 43.92234 -95.60999 37424 ft 484 kts 153°
2026-05-07 00:00 43.89340 -95.58606 37892 ft 484 kts 153°
2026-05-07 00:00 43.86449 -95.56218 38368 ft 484 kts 154°
2026-05-07 00:00 43.83553 -95.53828 38812 ft 484 kts 154°
2026-05-07 00:00 43.80662 -95.51445 39181 ft 484 kts 154°
2026-05-07 00:01 43.77804 -95.49092 39585 ft 484 kts 154°
2026-05-07 00:01 43.74914 -95.46715 39989 ft 483 kts 154°
2026-05-07 00:01 43.72031 -95.44347 40392 ft 482 kts 154°
2026-05-07 00:01 43.69151 -95.41984 40793 ft 480 kts 154°
2026-05-07 00:02 43.66273 -95.39625 41065 ft 483 kts 154°
2026-05-07 00:02 43.63349 -95.37238 41045 ft 493 kts 154°
2026-05-07 00:02 43.57333 -95.32319 41072 ft 512 kts 154°
2026-05-07 00:03 43.51146 -95.27274 41078 ft 526 kts 154°
2026-05-07 00:03 43.44846 -95.22145 41073 ft 526 kts 154°
2026-05-07 00:04 43.38535 -95.17029 41064 ft 527 kts 154°
2026-05-07 00:04 43.32220 -95.11916 41057 ft 527 kts 154°
2026-05-07 00:05 43.25942 -95.06848 41039 ft 527 kts 154°
2026-05-07 00:05 43.19619 -95.01755 41061 ft 527 kts 154°
2026-05-07 00:06 43.13294 -94.96674 41055 ft 527 kts 155°
2026-05-07 00:06 43.06961 -94.91597 41059 ft 527 kts 155°
2026-05-07 00:07 43.00674 -94.86571 41074 ft 527 kts 155°
2026-05-07 00:07 42.94339 -94.81518 41090 ft 527 kts 155°
2026-05-07 00:08 42.88001 -94.76474 41094 ft 527 kts 155°
2026-05-07 00:08 42.81662 -94.71442 41092 ft 527 kts 155°
2026-05-07 00:09 42.75362 -94.66453 41095 ft 527 kts 155°
2026-05-07 00:09 42.69022 -94.61445 41103 ft 527 kts 155°
2026-05-07 00:10 42.62678 -94.56444 41093 ft 527 kts 156°
2026-05-07 00:10 42.56372 -94.51486 41079 ft 527 kts 156°
2026-05-07 00:11 42.50028 -94.46509 41074 ft 527 kts 156°
2026-05-07 00:11 42.43681 -94.41542 41080 ft 527 kts 156°
2026-05-07 00:12 42.37335 -94.36588 41085 ft 527 kts 156°
2026-05-07 00:12 42.30983 -94.31640 41094 ft 526 kts 156°
2026-05-07 00:13 42.24676 -94.26740 41101 ft 526 kts 156°
2026-05-07 00:13 42.18328 -94.21818 41095 ft 526 kts 156°
2026-05-07 00:14 42.11981 -94.16909 41084 ft 526 kts 157°
2026-05-07 00:14 42.05637 -94.12014 41071 ft 526 kts 157°
2026-05-07 00:15 41.99290 -94.07127 41063 ft 525 kts 157°
2026-05-07 00:15 41.92995 -94.02293 41068 ft 525 kts 157°
2026-05-07 00:16 41.86656 -93.97434 41070 ft 524 kts 157°
2026-05-07 00:16 41.80317 -93.92589 41073 ft 524 kts 158°
2026-05-07 00:17 41.73990 -93.87762 41078 ft 524 kts 158°
2026-05-07 00:17 41.67698 -93.82974 41081 ft 524 kts 158°
2026-05-07 00:18 41.61361 -93.78162 41074 ft 523 kts 158°
2026-05-07 00:18 41.55029 -93.73365 41076 ft 523 kts 158°
2026-05-07 00:19 41.48696 -93.68578 41072 ft 523 kts 158°
2026-05-07 00:19 41.42588 -93.63296 41068 ft 536 kts 147°
2026-05-07 00:20 41.37191 -93.56320 41097 ft 543 kts 141°
2026-05-07 00:20 41.31778 -93.49330 41098 ft 541 kts 143°
2026-05-07 00:21 41.26362 -93.42360 41090 ft 543 kts 142°
2026-05-07 00:21 41.20989 -93.35416 41078 ft 542 kts 143°
2026-05-07 00:22 41.15554 -93.28468 41069 ft 543 kts 143°
2026-05-07 00:22 41.10131 -93.21495 41068 ft 542 kts 143°
2026-05-07 00:23 41.04694 -93.14570 41074 ft 543 kts 143°
2026-05-07 00:23 40.99258 -93.07626 41076 ft 542 kts 144°
2026-05-07 00:24 40.93858 -93.00770 41090 ft 542 kts 144°
2026-05-07 00:24 40.88422 -92.93867 41085 ft 541 kts 144°
2026-05-07 00:25 40.82988 -92.86995 41086 ft 541 kts 144°
2026-05-07 00:25 40.77549 -92.80125 41084 ft 541 kts 144°
2026-05-07 00:26 40.72143 -92.73319 41082 ft 541 kts 144°
2026-05-07 00:26 40.66700 -92.66479 41089 ft 541 kts 144°
2026-05-07 00:27 40.61256 -92.59655 41090 ft 541 kts 145°
2026-05-07 00:27 40.55801 -92.52834 41093 ft 541 kts 145°
2026-05-07 00:28 40.50342 -92.46022 41097 ft 541 kts 145°
2026-05-07 00:28 40.44909 -92.39260 41099 ft 542 kts 145°
2026-05-07 00:29 40.39435 -92.32462 41097 ft 542 kts 145°
2026-05-07 00:30 40.28461 -92.18884 41095 ft 543 kts 146°
2026-05-07 00:30 40.23003 -92.12156 41097 ft 543 kts 146°
2026-05-07 00:31 40.17497 -92.05388 41097 ft 543 kts 146°
2026-05-07 00:31 40.11991 -91.98631 41088 ft 543 kts 146°
2026-05-07 00:32 40.06478 -91.91886 41087 ft 543 kts 146°
2026-05-07 00:32 40.01001 -91.85198 41085 ft 543 kts 147°
2026-05-07 00:33 39.95483 -91.78476 41091 ft 543 kts 147°
2026-05-07 00:33 39.89961 -91.71765 41089 ft 543 kts 147°
2026-05-07 00:34 39.84436 -91.65066 41079 ft 543 kts 147°
2026-05-07 00:34 39.78946 -91.58424 41081 ft 543 kts 147°
2026-05-07 00:35 39.73411 -91.51742 41085 ft 543 kts 148°
2026-05-07 00:35 39.67877 -91.45078 41085 ft 543 kts 148°
2026-05-07 00:36 39.62338 -91.38421 41089 ft 542 kts 148°
2026-05-07 00:36 39.56798 -91.31773 41090 ft 542 kts 148°
2026-05-07 00:37 39.54069 -91.28506 41354 ft 539 kts 148°
2026-05-07 00:37 39.51391 -91.25273 42629 ft 512 kts 148°
2026-05-07 00:37 39.48842 -91.22203 43783 ft 493 kts 148°
2026-05-07 00:37 39.46309 -91.19222 44085 ft 493 kts 149°
2026-05-07 00:38 39.43764 -91.16233 44417 ft 494 kts 148°
2026-05-07 00:38 39.41244 -91.13209 44803 ft 494 kts 147°
2026-05-07 00:38 39.38733 -91.10187 45116 ft 494 kts 147°
2026-05-07 00:38 39.36183 -91.07170 45107 ft 501 kts 148°
2026-05-07 00:39 39.31004 -91.01052 45094 ft 515 kts 147°
2026-05-07 00:39 39.25659 -90.94696 45092 ft 529 kts 147°
2026-05-07 00:40 39.20168 -90.88224 45095 ft 540 kts 147°
2026-05-07 00:40 39.14636 -90.81677 45091 ft 538 kts 147°
2026-05-07 00:41 39.09104 -90.75186 45080 ft 539 kts 147°
2026-05-07 00:41 39.03569 -90.68677 45070 ft 539 kts 147°
2026-05-07 00:42 38.98063 -90.62235 45066 ft 539 kts 148°
2026-05-07 00:42 38.92517 -90.55749 45064 ft 539 kts 148°
2026-05-07 00:43 38.86969 -90.49273 45063 ft 540 kts 147°
2026-05-07 00:43 38.81852 -90.42013 45060 ft 552 kts 140°
2026-05-07 00:44 38.76870 -90.34621 45069 ft 551 kts 141°
2026-05-07 00:44 38.71818 -90.27226 45058 ft 552 kts 140°
2026-05-07 00:45 38.66789 -90.19801 45057 ft 552 kts 141°
2026-05-07 00:45 38.61725 -90.12410 45054 ft 553 kts 141°
2026-05-07 00:46 38.56709 -90.05054 45049 ft 553 kts 141°
2026-05-07 00:46 38.51635 -89.97670 45037 ft 553 kts 141°
2026-05-07 00:47 38.46564 -89.90279 45033 ft 554 kts 141°
2026-05-07 00:47 38.41483 -89.82910 45046 ft 553 kts 141°
2026-05-07 00:48 38.36427 -89.75582 45047 ft 554 kts 141°
2026-05-07 00:48 38.31333 -89.68223 45047 ft 554 kts 141°
2026-05-07 00:49 38.26231 -89.60864 45057 ft 554 kts 141°
2026-05-07 00:49 38.21126 -89.53522 45050 ft 554 kts 142°
2026-05-07 00:50 38.16048 -89.46234 45053 ft 554 kts 142°
2026-05-07 00:50 38.10936 -89.38913 45055 ft 554 kts 142°
2026-05-07 00:51 38.05816 -89.31599 45057 ft 554 kts 142°
2026-05-07 00:51 38.00694 -89.24297 45056 ft 553 kts 142°
2026-05-07 00:52 37.95570 -89.17010 45049 ft 554 kts 142°
2026-05-07 00:52 37.90476 -89.09781 45051 ft 553 kts 142°
2026-05-07 00:53 37.85349 -89.02523 45050 ft 553 kts 142°
2026-05-07 00:53 37.80219 -88.95277 45059 ft 553 kts 142°
2026-05-07 00:54 37.75082 -88.88041 45053 ft 553 kts 143°
2026-05-07 00:54 37.69946 -88.80822 45058 ft 552 kts 143°
2026-05-07 00:55 37.64841 -88.73664 45056 ft 552 kts 143°
2026-05-07 00:55 37.59701 -88.66468 45045 ft 552 kts 143°
2026-05-07 00:56 37.54546 -88.59270 45047 ft 553 kts 143°
2026-05-07 00:56 37.49383 -88.52077 45044 ft 554 kts 143°
2026-05-07 00:57 37.44214 -88.44885 45039 ft 554 kts 143°
2026-05-07 00:57 37.39068 -88.37748 45031 ft 554 kts 143°
2026-05-07 00:58 37.33883 -88.30568 45040 ft 554 kts 143°
2026-05-07 00:58 37.28697 -88.23405 45037 ft 554 kts 143°
2026-05-07 00:59 37.20910 -88.12678 45036 ft 553 kts 143°
2026-05-07 01:00 37.15724 -88.05555 45032 ft 553 kts 143°
2026-05-07 01:00 37.10540 -87.98447 45029 ft 552 kts 143°
2026-05-07 01:01 37.05398 -87.91414 45034 ft 550 kts 144°
2026-05-07 01:01 37.00227 -87.84359 45024 ft 550 kts 144°
2026-05-07 01:02 36.95054 -87.77312 45029 ft 549 kts 144°
2026-05-07 01:02 36.89882 -87.70285 45026 ft 549 kts 144°
2026-05-07 01:03 36.84704 -87.63263 45018 ft 549 kts 144°
2026-05-07 01:03 36.79526 -87.56258 45032 ft 549 kts 144°
2026-05-07 01:04 36.74372 -87.49299 44989 ft 550 kts 144°
2026-05-07 01:04 36.69179 -87.42302 44984 ft 549 kts 144°
2026-05-07 01:05 36.63976 -87.35343 45034 ft 546 kts 146°
2026-05-07 01:05 36.61172 -87.32264 45042 ft 529 kts 155°
2026-05-07 01:05 36.58162 -87.29742 45045 ft 515 kts 163°
2026-05-07 01:06 36.51925 -87.25777 45059 ft 506 kts 167°
2026-05-07 01:06 36.45641 -87.21810 45053 ft 506 kts 167°
2026-05-07 01:07 36.39361 -87.17894 45039 ft 504 kts 167°
2026-05-07 01:07 36.33101 -87.13977 45023 ft 504 kts 167°
2026-05-07 01:08 36.26843 -87.10077 45016 ft 503 kts 167°
2026-05-07 01:08 36.20606 -87.06195 45024 ft 501 kts 167°
2026-05-07 01:09 36.14427 -87.02354 45016 ft 500 kts 167°
2026-05-07 01:09 36.08202 -86.98496 45019 ft 500 kts 167°
2026-05-07 01:10 36.01989 -86.94647 45019 ft 499 kts 167°
2026-05-07 01:10 35.95778 -86.90811 45013 ft 499 kts 167°
2026-05-07 01:11 35.89576 -86.86984 45032 ft 498 kts 167°
2026-05-07 01:11 35.83422 -86.83195 45026 ft 497 kts 167°
2026-05-07 01:12 35.77231 -86.79389 45009 ft 497 kts 167°
2026-05-07 01:12 35.71050 -86.75595 45015 ft 496 kts 167°
2026-05-07 01:13 35.64868 -86.71809 45006 ft 496 kts 168°
2026-05-07 01:13 35.58699 -86.68036 45004 ft 496 kts 168°
2026-05-07 01:14 35.52562 -86.64289 45000 ft 496 kts 168°
2026-05-07 01:14 35.46386 -86.60526 44994 ft 496 kts 168°
2026-05-07 01:15 35.40209 -86.56768 44999 ft 496 kts 168°
2026-05-07 01:15 35.34025 -86.53012 44994 ft 496 kts 168°
2026-05-07 01:16 35.27841 -86.49263 44994 ft 496 kts 168°
2026-05-07 01:16 35.21649 -86.45516 44998 ft 497 kts 168°
2026-05-07 01:17 35.15451 -86.41769 44987 ft 497 kts 168°
2026-05-07 01:17 35.09295 -86.38058 44992 ft 497 kts 168°
2026-05-07 01:18 35.03091 -86.34319 44995 ft 497 kts 168°
2026-05-07 01:18 34.96883 -86.30591 44993 ft 498 kts 168°
2026-05-07 01:19 34.90680 -86.26864 45001 ft 498 kts 168°
2026-05-07 01:19 34.84410 -86.23120 44984 ft 505 kts 167°
2026-05-07 01:20 34.78094 -86.19328 44971 ft 507 kts 167°
2026-05-07 01:20 34.71801 -86.15578 44954 ft 507 kts 168°
2026-05-07 01:21 34.65470 -86.11800 44949 ft 508 kts 167°
2026-05-07 01:21 34.59121 -86.08025 44952 ft 508 kts 167°
2026-05-07 01:22 34.52767 -86.04250 44949 ft 509 kts 167°
2026-05-07 01:22 34.46410 -86.00480 44943 ft 509 kts 167°
2026-05-07 01:23 34.41113 -85.97346 44947 ft 511 kts 167°
2026-05-07 01:23 34.34723 -85.93567 44942 ft 512 kts 167°
2026-05-07 01:24 34.27274 -85.89173 44942 ft 513 kts 167°
2026-05-07 01:24 34.21895 -85.86004 44941 ft 514 kts 167°
2026-05-07 01:25 34.15493 -85.82238 44935 ft 516 kts 167°
2026-05-07 01:25 34.09035 -85.78447 44937 ft 517 kts 167°
2026-05-07 01:26 34.02558 -85.74650 44942 ft 518 kts 167°
2026-05-07 01:26 33.96068 -85.70853 44946 ft 519 kts 167°
2026-05-07 01:27 33.89559 -85.67051 44944 ft 521 kts 167°
2026-05-07 01:27 33.83034 -85.63247 44946 ft 522 kts 167°
2026-05-07 01:28 33.76541 -85.59467 44947 ft 522 kts 167°
2026-05-07 01:28 33.69997 -85.55663 44955 ft 523 kts 167°
2026-05-07 01:29 33.63418 -85.51849 44957 ft 526 kts 167°
2026-05-07 01:29 33.56823 -85.48026 44978 ft 527 kts 166°
2026-05-07 01:30 33.50220 -85.44211 44975 ft 527 kts 166°
2026-05-07 01:30 33.43649 -85.40417 44977 ft 528 kts 166°
2026-05-07 01:31 33.37023 -85.36598 44965 ft 529 kts 166°
2026-05-07 01:31 33.30383 -85.32780 44953 ft 530 kts 166°
2026-05-07 01:32 33.23737 -85.28962 44962 ft 530 kts 166°
2026-05-07 01:32 33.17077 -85.25146 44976 ft 531 kts 166°
2026-05-07 01:33 33.10400 -85.21324 44996 ft 533 kts 166°
2026-05-07 01:33 33.03761 -85.17530 44986 ft 533 kts 166°
2026-05-07 01:34 32.97067 -85.13712 44998 ft 534 kts 166°
2026-05-07 01:34 32.90364 -85.09895 44994 ft 534 kts 166°
2026-05-07 01:35 32.83665 -85.06087 44984 ft 534 kts 166°
2026-05-07 01:35 32.76960 -85.02282 44986 ft 534 kts 166°
2026-05-07 01:36 32.70307 -84.98512 44991 ft 534 kts 166°
2026-05-07 01:36 32.63596 -84.94718 45009 ft 534 kts 165°
2026-05-07 01:37 32.56885 -84.90927 45002 ft 534 kts 165°
2026-05-07 01:37 32.50177 -84.87146 44996 ft 534 kts 165°
2026-05-07 01:38 32.43460 -84.83366 44995 ft 534 kts 165°
2026-05-07 01:38 32.36752 -84.79596 44936 ft 534 kts 165°
2026-05-07 01:39 32.30090 -84.75860 44944 ft 534 kts 165°
2026-05-07 01:39 32.23376 -84.72100 44953 ft 534 kts 165°
2026-05-07 01:40 32.16668 -84.68349 44964 ft 533 kts 165°
2026-05-07 01:40 32.09958 -84.64604 44979 ft 533 kts 165°
2026-05-07 01:41 32.03251 -84.60867 44981 ft 533 kts 165°
2026-05-07 01:41 31.96596 -84.57163 44985 ft 532 kts 165°
2026-05-07 01:42 31.89905 -84.53448 44987 ft 532 kts 165°
2026-05-07 01:42 31.83218 -84.49738 44983 ft 531 kts 164°
2026-05-07 01:43 31.76546 -84.46044 44994 ft 530 kts 164°
2026-05-07 01:43 31.69918 -84.42380 44996 ft 529 kts 164°
2026-05-07 01:44 31.63177 -84.39141 44993 ft 513 kts 175°
2026-05-07 01:44 31.56268 -84.37393 45025 ft 508 kts 178°
2026-05-07 01:45 31.49349 -84.35606 45022 ft 508 kts 178°
2026-05-07 01:45 31.42436 -84.33878 45016 ft 508 kts 178°
2026-05-07 01:46 31.35579 -84.32138 45009 ft 507 kts 178°
2026-05-07 01:46 31.28681 -84.30403 45001 ft 507 kts 178°
2026-05-07 01:47 31.21787 -84.28667 44998 ft 507 kts 177°
2026-05-07 01:47 31.14899 -84.26936 44998 ft 506 kts 177°
2026-05-07 01:48 31.08059 -84.25221 44998 ft 506 kts 177°
2026-05-07 01:48 31.01172 -84.23495 44997 ft 507 kts 177°
2026-05-07 01:49 30.94286 -84.21772 45002 ft 506 kts 177°
2026-05-07 01:49 30.87393 -84.20051 45010 ft 506 kts 177°
2026-05-07 01:50 30.80501 -84.18332 45012 ft 507 kts 176°
2026-05-07 01:50 30.73659 -84.16626 45012 ft 506 kts 176°
2026-05-07 01:51 30.66774 -84.14914 45014 ft 506 kts 176°
2026-05-07 01:51 30.59890 -84.13204 45018 ft 506 kts 176°
2026-05-07 01:52 30.53009 -84.11497 45026 ft 506 kts 176°
2026-05-07 01:52 30.46148 -84.09799 45030 ft 508 kts 176°
2026-05-07 01:53 30.39246 -84.08006 45012 ft 513 kts 172°
2026-05-07 01:53 30.32645 -84.04546 45040 ft 529 kts 157°
2026-05-07 01:54 30.26284 -84.00229 45053 ft 529 kts 157°
2026-05-07 01:54 30.19881 -83.96047 45057 ft 529 kts 157°
2026-05-07 01:55 30.13541 -83.91809 45048 ft 530 kts 157°
2026-05-07 01:55 30.07133 -83.87598 45051 ft 531 kts 157°
2026-05-07 01:56 30.00724 -83.83354 45057 ft 532 kts 157°
2026-05-07 01:56 29.94289 -83.79120 45060 ft 533 kts 157°
2026-05-07 01:57 29.87884 -83.74902 45055 ft 534 kts 156°
2026-05-07 01:57 29.81425 -83.70660 45058 ft 535 kts 156°
2026-05-07 01:58 29.74952 -83.66412 45055 ft 536 kts 156°
2026-05-07 01:58 29.68472 -83.62168 45055 ft 537 kts 156°
2026-05-07 01:59 29.61979 -83.57921 45055 ft 537 kts 156°
2026-05-07 01:59 29.55518 -83.53701 45057 ft 538 kts 156°
2026-05-07 02:00 29.49003 -83.49452 45058 ft 539 kts 156°
2026-05-07 02:00 29.42488 -83.45210 45055 ft 538 kts 156°
2026-05-07 02:01 29.35976 -83.40976 45056 ft 538 kts 156°
2026-05-07 02:01 29.29504 -83.36774 45054 ft 538 kts 156°
2026-05-07 02:02 29.22898 -83.32811 45075 ft 533 kts 162°
2026-05-07 02:02 29.16091 -83.29440 45080 ft 533 kts 162°
2026-05-07 02:03 29.09319 -83.25953 45075 ft 533 kts 161°
2026-05-07 02:03 29.02575 -83.22568 45073 ft 533 kts 162°
2026-05-07 02:04 28.95796 -83.19126 45065 ft 533 kts 161°
2026-05-07 02:04 28.89014 -83.15707 45070 ft 533 kts 162°
2026-05-07 02:05 28.82225 -83.12284 45065 ft 533 kts 161°
2026-05-07 02:05 28.75488 -83.08890 45064 ft 533 kts 162°
2026-05-07 02:06 28.68703 -83.05481 45062 ft 533 kts 161°
2026-05-07 02:06 28.61921 -83.02075 45067 ft 533 kts 161°
2026-05-07 02:07 28.55137 -82.98675 45073 ft 533 kts 161°
2026-05-07 02:07 28.45002 -82.93603 45074 ft 532 kts 161°
2026-05-07 02:08 28.38223 -82.90216 45067 ft 532 kts 161°
2026-05-07 02:08 28.31449 -82.86837 45071 ft 532 kts 161°
2026-05-07 02:09 28.24672 -82.83461 45067 ft 532 kts 161°
2026-05-07 02:09 28.17904 -82.80094 45077 ft 532 kts 161°
2026-05-07 02:10 28.11180 -82.76754 45081 ft 531 kts 161°
2026-05-07 02:10 28.04412 -82.73397 45075 ft 530 kts 161°
2026-05-07 02:11 27.97473 -82.70915 45066 ft 518 kts 175°
2026-05-07 02:11 27.90362 -82.69688 45081 ft 518 kts 176°
2026-05-07 02:12 27.83267 -82.68184 45078 ft 519 kts 175°
2026-05-07 02:12 27.76214 -82.66848 45051 ft 517 kts 176°
2026-05-07 02:13 27.69121 -82.65429 45065 ft 518 kts 175°
2026-05-07 02:13 27.62023 -82.64041 45063 ft 517 kts 176°
2026-05-07 02:14 27.54931 -82.62650 45078 ft 518 kts 175°
2026-05-07 02:14 27.47937 -82.60798 45066 ft 522 kts 170°
2026-05-07 02:15 27.40927 -82.58685 45068 ft 521 kts 171°
2026-05-07 02:15 27.33907 -82.56664 45077 ft 521 kts 170°
2026-05-07 02:16 27.26900 -82.54582 45064 ft 521 kts 170°
2026-05-07 02:16 27.19931 -82.52560 45054 ft 522 kts 170°
2026-05-07 02:17 27.12896 -82.50491 45056 ft 521 kts 170°
2026-05-07 02:17 27.09430 -82.49476 44190 ft 514 kts 170°
2026-05-07 02:17 27.05991 -82.48477 43533 ft 503 kts 170°
2026-05-07 02:18 27.02623 -82.47496 42738 ft 497 kts 170°
2026-05-07 02:18 26.99304 -82.46522 42006 ft 490 kts 170°
2026-05-07 02:18 26.96094 -82.45269 41260 ft 489 kts 161°
2026-05-07 02:18 26.93094 -82.43477 40540 ft 489 kts 151°
2026-05-07 02:19 26.90409 -82.41220 39834 ft 491 kts 142°
2026-05-07 02:19 26.88017 -82.38483 39103 ft 495 kts 132°
2026-05-07 02:19 26.85992 -82.35343 38319 ft 500 kts 124°
2026-05-07 02:19 26.84247 -82.31978 37587 ft 502 kts 120°
2026-05-07 02:20 26.82582 -82.28528 36845 ft 505 kts 119°
2026-05-07 02:20 26.80784 -82.25128 36072 ft 509 kts 124°
2026-05-07 02:20 26.78784 -82.21845 35310 ft 512 kts 126°
2026-05-07 02:20 26.76757 -82.18560 34535 ft 514 kts 124°
2026-05-07 02:21 26.74858 -82.15160 33719 ft 517 kts 121°
2026-05-07 02:21 26.73025 -82.11768 32951 ft 515 kts 122°
2026-05-07 02:21 26.70954 -82.08500 32184 ft 516 kts 127°
2026-05-07 02:21 26.68919 -82.05176 31391 ft 520 kts 124°
2026-05-07 02:22 26.66963 -82.01757 30607 ft 523 kts 123°
2026-05-07 02:22 26.64965 -81.98367 29774 ft 520 kts 125°
2026-05-07 02:22 26.62916 -81.95081 28994 ft 511 kts 126°
2026-05-07 02:22 26.60914 -81.91837 28232 ft 503 kts 125°
2026-05-07 02:23 26.58997 -81.88606 27481 ft 495 kts 124°
2026-05-07 02:23 26.57106 -81.85421 26741 ft 488 kts 124°
2026-05-07 02:23 26.55201 -81.82305 26011 ft 482 kts 125°
2026-05-07 02:23 26.53343 -81.79281 25310 ft 476 kts 125°
2026-05-07 02:24 26.51522 -81.76266 24605 ft 460 kts 124°
2026-05-07 02:24 26.49768 -81.73344 23922 ft 445 kts 124°
2026-05-07 02:24 26.48059 -81.70532 23209 ft 431 kts 125°
2026-05-07 02:24 26.46300 -81.67887 22574 ft 419 kts 128°
2026-05-07 02:25 26.44585 -81.65291 21948 ft 414 kts 126°
2026-05-07 02:25 26.42914 -81.62681 21335 ft 411 kts 126°
2026-05-07 02:25 26.41225 -81.60121 20715 ft 408 kts 127°
2026-05-07 02:25 26.39550 -81.57640 20115 ft 404 kts 127°
2026-05-07 02:26 26.37885 -81.55145 19515 ft 399 kts 127°
2026-05-07 02:26 26.36254 -81.52664 18915 ft 393 kts 126°
2026-05-07 02:26 26.34642 -81.50226 18246 ft 389 kts 127°
2026-05-07 02:26 26.33041 -81.47828 17602 ft 381 kts 127°
2026-05-07 02:27 26.31477 -81.45481 17032 ft 374 kts 126°
2026-05-07 02:27 26.29935 -81.43160 16476 ft 370 kts 126°
2026-05-07 02:27 26.28410 -81.40864 15924 ft 367 kts 126°
2026-05-07 02:27 26.26895 -81.38590 15375 ft 364 kts 126°
2026-05-07 02:28 26.25414 -81.36369 14835 ft 359 kts 125°
2026-05-07 02:28 26.23935 -81.34149 14301 ft 355 kts 125°
2026-05-07 02:28 26.22473 -81.31955 13751 ft 351 kts 125°
2026-05-07 02:28 26.21029 -81.29791 13210 ft 345 kts 125°
2026-05-07 02:29 26.19603 -81.27656 12693 ft 342 kts 125°
2026-05-07 02:29 26.18188 -81.25536 12178 ft 340 kts 125°
2026-05-07 02:29 26.16782 -81.23433 11670 ft 337 kts 125°
2026-05-07 02:29 26.15390 -81.21351 11167 ft 335 kts 125°
2026-05-07 02:30 26.14011 -81.19290 10673 ft 327 kts 126°
2026-05-07 02:30 26.12680 -81.17302 10184 ft 313 kts 126°
2026-05-07 02:30 26.11420 -81.15421 9701 ft 302 kts 126°
2026-05-07 02:30 26.10189 -81.13582 9248 ft 291 kts 126°
2026-05-07 02:31 26.08996 -81.11803 8815 ft 285 kts 126°
2026-05-07 02:31 26.07819 -81.10046 8397 ft 282 kts 126°
2026-05-07 02:31 26.06648 -81.08299 7973 ft 281 kts 126°
2026-05-07 02:31 26.05482 -81.06561 7555 ft 280 kts 126°
2026-05-07 02:32 26.04323 -81.04834 7139 ft 278 kts 126°
2026-05-07 02:32 26.03171 -81.03118 6722 ft 276 kts 126°
2026-05-07 02:32 26.02029 -81.01418 6283 ft 274 kts 126°
2026-05-07 02:32 26.00992 -80.99700 5939 ft 268 kts 115°
2026-05-07 02:33 26.00313 -80.97781 5991 ft 267 kts 110°
2026-05-07 02:33 25.99668 -80.95860 5993 ft 270 kts 110°
2026-05-07 02:33 25.98988 -80.93908 5996 ft 272 kts 110°
2026-05-07 02:33 25.98298 -80.91947 5995 ft 273 kts 110°
2026-05-07 02:34 25.97611 -80.89978 5995 ft 274 kts 110°
2026-05-07 02:34 25.96925 -80.88006 5996 ft 273 kts 110°
2026-05-07 02:34 25.96237 -80.86032 5935 ft 275 kts 110°
2026-05-07 02:34 25.95544 -80.84045 5751 ft 276 kts 110°
2026-05-07 02:35 25.94850 -80.82057 5516 ft 276 kts 110°
2026-05-07 02:35 25.94167 -80.80102 5278 ft 275 kts 110°
2026-05-07 02:35 25.93483 -80.78125 5051 ft 273 kts 109°
2026-05-07 02:35 25.93104 -80.76078 4776 ft 271 kts 95°
2026-05-07 02:36 25.92925 -80.73995 4561 ft 270 kts 94°
2026-05-07 02:36 25.92739 -80.71943 4331 ft 260 kts 95°
2026-05-07 02:36 25.92531 -80.70000 4104 ft 247 kts 96°
2026-05-07 02:36 25.92340 -80.68200 3895 ft 226 kts 96°
2026-05-07 02:37 25.92167 -80.66493 3691 ft 220 kts 96°
2026-05-07 02:37 25.91997 -80.64827 3495 ft 220 kts 97°
2026-05-07 02:37 25.91823 -80.63136 3313 ft 221 kts 97°
2026-05-07 02:37 25.91649 -80.61441 3124 ft 221 kts 97°
2026-05-07 02:38 25.91474 -80.59744 2941 ft 222 kts 97°
2026-05-07 02:38 25.91299 -80.58043 2741 ft 221 kts 97°
2026-05-07 02:38 25.91125 -80.56351 2544 ft 220 kts 98°
2026-05-07 02:38 25.90956 -80.54668 2348 ft 218 kts 97°
2026-05-07 02:39 25.90798 -80.52995 2155 ft 217 kts 97°
2026-05-07 02:39 25.90638 -80.51336 1961 ft 216 kts 97°
2026-05-07 02:39 25.90436 -80.49739 1759 ft 199 kts 102°
2026-05-07 02:39 25.90326 -80.48290 1577 ft 185 kts 90°
2026-05-07 02:40 25.90395 -80.46913 1587 ft 175 kts 88°
2026-05-07 02:40 25.90457 -80.45556 1593 ft 178 kts 89°
2026-05-07 02:40 25.90523 -80.44166 1602 ft 182 kts 88°
2026-05-07 02:40 25.90580 -80.42749 1602 ft 186 kts 91°
2026-05-07 02:41 25.90648 -80.41305 1601 ft 188 kts 86°
2026-05-07 02:41 25.90739 -80.39884 1594 ft 181 kts 88°
2026-05-07 02:41 25.90795 -80.38502 1602 ft 175 kts 89°
2026-05-07 02:41 25.90855 -80.37250 1439 ft 152 kts 88°
2026-05-07 02:42 25.90909 -80.36166 1249 ft 133 kts 88°
2026-05-07 02:42 25.90958 -80.35177 1089 ft 126 kts 89°
2026-05-07 02:42 25.91005 -80.34200 959 ft 131 kts 89°
2026-05-07 02:42 25.91054 -80.33184 792 ft 132 kts 88°
2026-05-07 02:43 25.91109 -80.32163 617 ft 132 kts 88°
2026-05-07 02:43 25.91155 -80.31150 436 ft 131 kts 87°
2026-05-07 02:43 25.91205 -80.30149 269 ft 129 kts 87°
2026-05-07 02:43 25.91253 -80.29166 94 ft 127 kts 87°
2026-05-07 02:44 25.91297 -80.28226 10 ft 111 kts 87°
2026-05-07 02:44 25.91330 -80.27542 14 ft 57 kts 86°
2026-05-07 02:44 25.91346 -80.27194 16 ft 32 kts 88°
2026-05-07 02:44 25.91331 -80.27049 19 ft 13 kts 145°
2026-05-07 02:45 25.91238 -80.27037 16 ft 14 kts 173°
2026-05-07 02:45 25.91161 -80.27020 15 ft 11 kts 180°
2026-05-07 02:45 25.91087 -80.27022 15 ft 10 kts 184°
2026-05-07 02:45 25.91058 -80.27070 15 ft 8 kts 295°
2026-05-07 02:46 25.91093 -80.27118 15 ft 8 kts 311°
2026-05-07 02:46 25.91104 -80.27148 16 ft 1 kts 200°
2026-05-07 02:46 25.91103 -80.27147 16 ft 0 kts 179°